Weather History for KFFO - February, 2013

Change the Weather History Date:

Thursday, February 28, 2013

  Actual Average Record
Temperature  
Mean Temperature 34 °F -  
Max Temperature 37 °F 42 °F 64 °F (2011)
Min Temperature 31 °F 25 °F 2 °F (2015)
Degree Days  
Heating Degree Days 31    
Moisture  
Dew Point 30 °F    
Average Humidity 85    
Maximum Humidity 93    
Minimum Humidity 75    
Precipitation  
Precipitation 0.01 in - - ()
Snow  
Snow 0.00 in - - ()
Snow Depth 1.00 in    
Sea Level Pressure  
Sea Level Pressure 29.79 in    
Wind  
Wind Speed 12 mph (West)    
Max Wind Speed 15 mph    
Max Gust Speed 18 mph    
Visibility 7 miles    
Events Rain , Snow    
Averages and records for this station are not official NWS values.
T = Trace of Precipitation, MM = Missing Value Source: NWS Daily Summary

Daily Weather History Graph

Daily Weather History Graph

Search for Another Location

Airport or City:

Trip Planner

Search our weather history database for the weather conditions in past years. The results will help you decide how hot, cold, wet, or windy it might be!

Date:

Astronomy

Feb. 28, 2013 Rise Set
Actual Time 7:10 AM EST 6:27 PM EST
Civil Twilight 6:43 AM EST 6:54 PM EST
Nautical Twilight 6:12 AM EST 7:25 PM EST
Astronomical Twilight 5:40 AM EST 7:57 PM EST
Moon 9:52 PM EST (2/28) 8:19 AM EST (2/28)
Length of Visible Light 12h 11m
Length of Day
11h 16m
Waning Gibbous, 91% of the Moon is Illuminated
Feb 28
Waning Gibbous
Mar 4
Last Quarter
Mar 11
New
Mar 19
First Quarter
Mar 27
Full

Hourly Weather History & Observations

Time (EST) Temp. Windchill Dew Point Humidity Pressure Visibility Wind Dir Wind Speed Gust Speed Precip Events Conditions
12:31 AM 32.0 °F 22.1 °F 28.4 °F 87% 29.68 in 8.0 mi SW 13.8 mph - N/A Snow Light Snow
12:52 AM 32.0 °F 22.5 °F 28.4 °F 87% 29.68 in 10.0 mi SW 12.7 mph - N/A Rain Light Freezing Rain
12:55 AM 32.2 °F 23.2 °F 28.4 °F 86% 29.69 in 10.0 mi SW 11.5 mph - 0.00 in Snow Light Snow
1:28 AM 32.0 °F 23.0 °F 28.4 °F 87% 29.69 in 8.0 mi SW 11.5 mph - N/A Snow Light Snow
1:55 AM 31.8 °F 22.3 °F 28.6 °F 88% 29.69 in 5.0 mi SW 12.7 mph - 0.00 in Snow Light Snow
2:42 AM 32.0 °F 23.0 °F 28.4 °F 87% 29.68 in 10.0 mi SW 11.5 mph - N/A Rain Light Freezing Rain
2:55 AM 31.6 °F 22.1 °F 28.6 °F 88% 29.68 in 8.0 mi SW 12.7 mph - 0.00 in Snow Light Snow
3:55 AM 31.6 °F 22.6 °F 28.4 °F 88% 29.68 in 5.0 mi SW 11.5 mph - 0.00 in Snow Light Snow
4:47 AM 32.0 °F 22.1 °F 28.4 °F 87% 29.68 in 4.0 mi SW 13.8 mph - N/A Snow Light Snow
4:55 AM 31.6 °F 21.2 °F 28.6 °F 88% 29.68 in 6.0 mi SW 15.0 mph - 0.00 in Snow Light Snow
5:55 AM 31.8 °F 21.8 °F 28.8 °F 88% 29.69 in 7.0 mi SW 13.8 mph - 0.01 in Snow Light Snow
6:11 AM 32.0 °F 21.6 °F 28.4 °F 87% 29.69 in 5.0 mi SW 15.0 mph - N/A Snow Light Snow
6:55 AM 31.8 °F 21.8 °F 29.3 °F 90% 29.70 in 3.0 mi SW 13.8 mph - 0.00 in Snow Light Snow
7:29 AM 32.0 °F 22.1 °F 30.2 °F 93% 29.70 in 5.0 mi SW 13.8 mph - N/A Rain Light Freezing Rain
7:55 AM 32.0 °F 22.1 °F 29.5 °F 90% 29.71 in 2.0 mi SW 13.8 mph - 0.00 in Snow Light Snow
8:19 AM 32.0 °F 22.5 °F 30.2 °F 93% 29.69 in 3.0 mi SW 12.7 mph - N/A Snow Light Snow
8:55 AM 32.7 °F 23.0 °F 29.7 °F 88% 29.73 in 3.0 mi WSW 13.8 mph - 0.00 in Snow Light Snow
9:30 AM 33.8 °F 25.8 °F 30.2 °F 87% 29.74 in 2.0 mi WSW 10.4 mph - N/A Snow Light Snow
9:55 AM 33.1 °F 23.9 °F 30.2 °F 89% 29.74 in 1.0 mi WSW 12.7 mph - 0.00 in Snow Light Snow
10:12 AM 33.8 °F 26.4 °F 30.2 °F 87% 29.75 in 1.5 mi WSW 9.2 mph - N/A Rain , Snow Light Rain
10:40 AM 33.8 °F 25.8 °F 32.0 °F 93% 29.76 in 2.5 mi West 10.4 mph - N/A Rain , Snow Light Rain
10:55 AM 34.2 °F 26.8 °F 31.3 °F 89% 29.76 in 2.5 mi WSW 9.2 mph - 0.00 in Rain , Snow Light Rain
11:09 AM 33.8 °F 27.0 °F 32.0 °F 93% 29.77 in 4.0 mi WSW 8.1 mph - N/A Rain Light Rain
11:27 AM 33.8 °F 25.3 °F 30.2 °F 87% 29.77 in 10.0 mi West 11.5 mph - N/A Rain Light Rain
11:36 AM 35.6 °F 27.5 °F 30.2 °F 81% 29.78 in 10.0 mi West 11.5 mph 18.4 mph N/A Rain Light Rain
11:50 AM 35.6 °F 28.6 °F 32.0 °F 87% 29.78 in 10.0 mi West 9.2 mph - N/A   Overcast
11:55 AM 35.1 °F 26.9 °F 30.4 °F 83% 29.78 in 10.0 mi WNW 11.5 mph - 0.00 in   Overcast
12:41 PM 35.6 °F 28.0 °F 30.2 °F 81% 29.79 in 10.0 mi WNW 10.4 mph - N/A   Overcast
12:55 PM 35.6 °F 27.5 °F 30.0 °F 80% 29.80 in 10.0 mi West 11.5 mph - N/A   Overcast
1:55 PM 35.8 °F 26.9 °F 29.8 °F 79% 29.80 in 10.0 mi West 13.8 mph 18.4 mph N/A   Overcast
2:22 PM 37.4 °F 30.8 °F 30.2 °F 75% 29.81 in 10.0 mi WNW 9.2 mph - N/A   Overcast
2:55 PM 36.1 °F 28.2 °F 30.0 °F 78% 29.82 in 10.0 mi WNW 11.5 mph - N/A   Overcast
3:18 PM 37.4 °F 30.3 °F 30.2 °F 75% 29.82 in 10.0 mi West 10.4 mph - N/A   Overcast
3:55 PM 36.7 °F 29.4 °F 30.2 °F 77% 29.83 in 10.0 mi West 10.4 mph - N/A   Overcast
4:55 PM 36.1 °F 28.7 °F 30.7 °F 81% 29.86 in 10.0 mi WNW 10.4 mph - N/A   Overcast
5:07 PM 35.6 °F 28.6 °F 30.2 °F 81% 29.87 in 7.0 mi West 9.2 mph 17.3 mph N/A Rain Light Rain
5:22 PM 35.6 °F 29.2 °F 32.0 °F 87% 29.88 in 5.0 mi West 8.1 mph - N/A   Overcast
5:55 PM 35.6 °F 28.6 °F 30.9 °F 83% 29.89 in 5.0 mi West 9.2 mph - 0.00 in   Light Drizzle
6:18 PM 35.6 °F 28.0 °F 32.0 °F 87% 29.90 in 7.0 mi West 10.4 mph - N/A   Overcast
6:32 PM 35.6 °F 29.2 °F 30.2 °F 81% 29.91 in 10.0 mi West 8.1 mph - N/A   Overcast
6:40 PM 35.6 °F 29.2 °F 30.2 °F 81% 29.91 in 10.0 mi West 8.1 mph - N/A   Overcast
6:43 PM 35.6 °F 28.6 °F 30.2 °F 81% 29.91 in 10.0 mi West 9.2 mph - N/A   Overcast
6:55 PM 35.2 °F 27.6 °F 30.7 °F 84% 29.92 in 10.0 mi West 10.4 mph - 0.00 in   Overcast
7:16 PM 35.6 °F 29.9 °F 32.0 °F 87% 29.93 in 10.0 mi West 6.9 mph - N/A   Overcast
7:55 PM 35.2 °F 28.1 °F 30.9 °F 84% 29.94 in 10.0 mi West 9.2 mph - N/A   Overcast
8:55 PM 35.1 °F 30.1 °F 30.9 °F 85% 29.94 in 10.0 mi WNW 5.8 mph - N/A   Overcast
9:55 PM 34.7 °F 28.1 °F 30.9 °F 86% 29.94 in 10.0 mi NW 8.1 mph - N/A   Overcast
10:59 PM 34.7 °F 29.6 °F 30.9 °F 86% 29.95 in 10.0 mi NW 5.8 mph - N/A   Overcast
11:55 PM 34.3 °F 30.2 °F 30.4 °F 85% 29.95 in 10.0 mi WNW 4.6 mph - N/A   Overcast